Location: Cluj-Napoca
(46.7712°N, 23.6236°E)
Time: 04:05:36
(UTC+03:00)

ISS - Visible Passes

Search period start: 28 May 2017 00:00
Search period end: 07 June 2017 00:00
Orbit: 402 x 408 km, 51.6° (Epoch: 28 May)

Date Brightness Start Highest point End Pass type
(mag) Time Alt. Az. Time Alt. Az. Time Alt. Az.
28 May -2.4 01:09:05 10° WNW 01:12:12 38° N 01:14:53 13° ENE visible
28 May -2.5 02:45:35 10° WNW 02:47:25 30° WNW 02:47:25 30° WNW visible
28 May -2.6 22:39:53 10° W 22:43:05 45° NNW 22:46:17 10° ENE visible
29 May -2.1 00:16:58 10° WNW 00:20:02 34° N 00:23:05 10° ENE visible
29 May -3.1 01:53:32 10° WNW 01:56:01 47° NW 01:56:01 47° NW visible
29 May -3.2 21:47:41 10° WSW 21:50:57 62° NNW 21:54:14 10° ENE visible
29 May -2.0 23:24:47 10° WNW 23:27:49 33° N 23:30:52 10° ENE visible
30 May -3.1 01:01:30 10° WNW 01:04:44 53° NNE 01:05:09 49° NE visible
30 May -2.1 22:32:31 10° WNW 22:35:37 35° N 22:38:42 10° ENE visible
31 May -2.6 00:09:25 10° WNW 00:12:35 41° NNE 00:14:27 20° ENE visible
31 May -1.7 01:45:56 10° WNW 01:47:05 20° WNW 01:47:05 20° WNW visible
31 May -2.2 23:17:17 10° WNW 23:20:22 35° N 23:23:27 10° ENE visible
01 Jun -3.3 00:53:49 10° WNW 00:56:29 55° WNW 00:56:29 55° WNW visible
01 Jun -2.1 22:25:05 10° WNW 22:28:08 33° N 22:31:11 10° ENE visible
02 Jun -3.4 00:01:44 10° WNW 00:05:01 61° NNE 00:05:58 40° E visible
02 Jun -1.0 01:38:29 10° W 01:38:36 11° W 01:38:36 11° W visible
02 Jun -2.8 23:09:38 10° WNW 23:12:49 45° NNE 23:15:28 14° E visible
03 Jun -2.4 00:46:10 10° WNW 00:48:06 29° W 00:48:06 29° W visible
03 Jun -2.4 22:17:29 10° WNW 22:20:36 37° N 22:23:42 10° E visible
03 Jun -4.0 23:54:00 10° WNW 23:57:18 77° SSW 23:57:38 66° SSE visible
04 Jun -3.6 23:01:52 10° WNW 23:05:10 70° NNE 23:07:13 21° ESE visible
05 Jun -1.6 00:38:46 10° W 00:39:51 16° W 00:39:51 16° W visible
05 Jun -3.0 22:09:44 10° WNW 22:12:58 49° NNE 22:16:11 10° E visible
05 Jun -3.1 23:46:20 10° WNW 23:49:26 38° SW 23:49:27 38° SW visible
06 Jun -3.8 22:54:04 10° WNW 22:57:21 64° SSW 22:59:04 25° SE visible
